星链-6348 (STARLINK-6348 )

导读 | 星芒AI

STARLINK-6348 是 SpaceX Starlink 项目中的一颗低轨通信卫星,属于第 63 批发射的星链卫星群。该卫星旨在为全球用户提供高速互联网服务,尤其服务于网络基础设施薄弱的地区。它运行在约 550 公里的轨道高度,采用先进的推进和通信技术,支持宽带数据传输。Starlink 卫星群通过大规模部署,构建起全球覆盖的卫星互联网网络,提升全球网络接入的公平性与效率。STARLINK-6348 于 2024 年发射,是 SpaceX 扩展其卫星互联网服务的重要组成部分。

基本信息
目录编号:
57360
目录名称:
STARLINK-6348
国际标识:
2023-099AJ
轨道中心:
EARTH
卫星名称:
星链-6348
卫星全名:
星链-6348 (STARLINK-6348 )
卫星状态:
在轨 (已飞行841 天)
发射日期:
2023-07-16 UTC
国别 :
美国 (US)
星等 :
--
轨道信息
数据来源 国际轨道数据
星历时间: 2025-11-02T18:35:04+0800
1天前
查看轨道信息
半长轴: 6937.238km
偏心率: 0.0001442
轨道倾角: 43.005°
近地点辐角 274.759°
升交点赤经 207.500°
平近点角 85.309°
近地点: 558.102km
远地点: 560.104km
周期: 95.838分钟
每日圈数: 15.025291
详细信息
固有亮度:
5
最大亮度:
2.5
卫星平台:
Starlink v1.5
覆盖范围:
全球
运营商:
太空探索技术公司
运营商所在国:
美国
制造商(研发单位):
太空探索技术公司
制造商所在国:
美国
使用方式:
暂无
卫星简介
星链(Starlink)计划是由太空探索技术公司(SpaceX)提出的一个巨型低轨卫星互联网星座项目,计划在2019年至2024年间在太空搭建由约1.2万颗卫星组成的“星链”网络,其中1584颗将部署在地球上空550千米处的近地轨道,并从2020年开始工作。该卫星仍在工作。
2D轨道图
3D轨道图
轨道高度分析图
轨道倾角分析图
轨道综合分析图
查看轨道综合分析图